Location: Martley
(52.2333°N, 2.3667°W)
Time: 20:43:45
(UTC+00:00)

CZ-4C R/B - Pass Details

Date: 11 December 2019
Orbit: 646 x 1355 km, 63.4° (Epoch: 21 January)

Event Time Altitude Azimuth Distance (km) Brightness Sun altitude
Exits shadow 06:06:40 16° 249° (WSW) 2,774 4.4 -17.4°
Drops below altitude 10° 06:10:48 10° 218° (SW) 3,314 5.0 -16.7°
Sets 06:15:02 0° 200° (SSW) 4,343 5.9 -16.1°
